CAPE
0 0 0 0 0 0 0 0 0 0 0 0 0 0 0 0 0 0 0 0 0 0 0 0 0 0 0 0 0 0 42 44 24 14 2 0 0 0 0 0 0 0 0 0
0 0 0 0 0 0 0 0 0 0 0 0 0 0 0 0 0 0 0 0 0 0 0 0 0 0 0 0 0 0 0 3 17 11 0 0 0 0 0 1 0 0 2 0
0 0 0 0 0 0 0 0 0 0 0 0 0 0 0 0 0 0 0 0 0 0 0 0 0 0 0 0 0 0 0 3 5 1 0 0 0 0 0 0 0 0 1 1
0 0 0 2 0 0 0 0 0 0 0 0 0 0 0 0 0 0 0 0 0 0 0 0 0 0 0 0 0 0 0 0 24 2 0 0 0 0 0 0 0 0 0 0
0 0 0 0 0 1 1 0 0 0 0 0 0 0 0 0 0 0 0 0 0 0 0 0 0 0 0 0 0 0 0 0 0 0 0 0 0 0 0 0 0 0 0 0
0 0 0 3 2 0 0 0 0 0 0 0 0 0 0 0 0 0 0 0 0 0 0 0 0 0 0 0 0 0 0 0 0 0 0 0 0 0 0 0 0 0 0 0
0 0 0 0 0 0 0 0 0 0 0 0 1 0 0 0 0 0 0 0 0 0 0 0 0 0 0 0 0 0 0 0 0 0 0 0 0 0 0 0 0 0 0 0
0 0 0 0 0 1 8 1 0 1 2 5 1 0 0 0 0 0 0 0 0 0 0 0 0 0 0 0 0 0 0 0 0 0 0 0 0 0 0 0 0 0 0 0
0 2 9 0 2 1 1 0 0 2 0 0 3 1 0 0 0 0 2 0 0 0 0 0 0 0 0 0 0 0 0 0 0 0 0 0 0 0 0 0 0 0 0 0
0 0 0 0 0 0 0 0 1 0 4 2 0 0 0 0 0 1 9 1 0 0 0 0 0 0 0 0 0 0 0 0 0 0 0 0 0 0 0 0 0 0 0 0
0 0 0 0 0 0 0 0 0 0 0 0 0 1 1 2 2 3 4 2 0 0 0 1 0 0 0 0 0 0 0 0 0 0 0 0 0 0 1 1 0 1 0 1
0 0 0 0 0 0 0 0 0 0 0 0 0 0 0 0 0 1 1 1 1 1 0 1 0 0 0 0 0 0 0 0 0 0 0 0 0 1 6 3 6 6 3 1
0 0 0 0 0 0 0 0 0 0 0 0 0 0 0 0 0 8 0 0 0 0 0 1 1 1 1 2 0 0 0 0 0 0 0 0 0 0 1 0 4 7 4 5
0 0 0 0 0 0 0 0 1 0 0 0 0 0 0 0 0 0 0 0 0 1 1 1 0 1 1 1 1 1 1 3 0 0 0 0 0 0 0 0 0 0 3 3
0 0 0 0 0 0 0 0 0 0 0 0 0 0 0 0 0 0 0 0 1 0 1 0 0 0 0 0 0 0 0 0 0 0 0 0 0 0 0 0 0 0 0 0
0 0 0 0 0 0 0 0 0 0 0 1 1 1 0 1 0 0 2 0 0 3 1 1 2 0 0 0 0 0 0 0 0 0 0 0 0 0 0 0 0 0 0 0
0 0 0 0 1 0 0 1 1 2 2 2 1 0 0 0 1 0 0 0 0 0 0 0 0 0 0 0 0 0 0 0 0 0 0 0 0 0 0 0 0 0 0 1
0 0 0 0 0 1 0 0 0 0 1 2 0 0 0 0 0 0 0 0 0 0 0 0 0 0 0 0 0 0 0 0 0 0 0 0 0 0 0 0 0 0 0 0
0 0 0 0 0 0 0 0 0 0 0 0 0 0 0 0 0 0 0 0 0 0 0 0 0 0 0 0 0 0 0 0 0 0 0 0 0 0 0 0 0 0 0 0
0 0 0 0 0 0 0 0 0 0 0 0 0 0 0 0 0 0 0 0 0 1 0 0 0 0 0 0 0 0 0 0 0 0 0 0 0 0 0 0 0 0 0 0
0 0 0 0 0 0 0 0 0 0 0 0 0 0 0 0 0 0 0 0 0 2 0 0 0 0 0 0 0 0 0 0 0 0 0 0 0 0 0 0 0 0 0 0
0 0 0 0 0 0 0 0 0 0 0 0 0 0 0 0 0 0 0 0 0 13 0 0 0 11 0 0 0 0 0 0 0 0 0 0 0 0 0 0 0 0 0 0
0 0 0 0 0 0 0 0 0 0 0 0 0 0 0 0 0 0 0 0 0 0 0 0 5 24 0 0 0 0 0 0 0 0 0 0 0 0 0 0 0 0 0 0
0 0 0 0 0 0 0 0 0 0 0 0 0 0 0 0 0 0 0 0 0 2 0 0 1 17 0 0 0 0 0 0 0 0 0 0 0 0 0 0 0 0 0 0
0 0 0 0 0 0 0 0 0 0 0 0 0 0 0 0 3 0 0 0 0 0 0 0 8 6 0 0 0 0 0 0 0 0 0 0 0 0 0 0 0 0 0 0
0 0 0 0 0 0 0 0 0 0 0 0 0 0 0 0 0 0 0 0 0 0 0 0 0 0 0 0 0 0 0 0 0 0 0 0 0 0 0 0 0 0 0 0
0 0 0 0 0 0 0 0 0 0 0 0 0 0 0 0 0 0 0 0 0 0 0 0 0 0 0 0 0 0 0 0 0 0 0 0 0 0 0 0 0 0 0 0
CIN
0 0 0 0 0 0 0 0 0 0 0 0 0 0 0 0 0 0 0 0 0 0 0 0 0 0 0 0 0 0 -43 -47 -51 -43 -45 -30 0 0 0 0 0 0 0 0
0 0 0 0 0 0 0 0 0 0 0 0 0 0 0 0 0 0 0 0 0 0 0 0 0 0 0 0 0 0 0 -18 -48 -48 -1 0 0 0 0 0 0 0 0 0
0 0 0 0 0 0 0 0 0 0 0 0 0 0 0 0 0 0 0 0 0 0 0 0 0 0 0 0 0 0 0 -28 -41 -79 -32 0 0 0 0 0 0 0 0 0
0 0 0 0 0 0 0 0 0 0 0 0 0 0 0 0 0 0 0 0 0 0 0 0 0 0 0 0 0 0 0 0 -85 -56 0 0 0 0 0 0 0 0 0 0
-1 -2 0 0 0 0 0 0 0 0 0 0 0 0 0 0 0 0 0 0 0 0 0 0 0 0 0 0 0 0 0 0 0 -2 -8 -7 0 0 0 0 0 0 0 0
0 0 0 0 0 0 0 0 0 0 0 0 0 0 0 0 0 0 0 0 0 0 0 0 0 0 0 0 0 0 0 0 0 0 0 0 0 0 0 0 0 0 0 0
0 0 0 0 0 0 0 0 0 0 0 0 0 0 0 0 0 0 0 0 0 0 0 0 0 0 0 0 0 0 0 0 0 0 0 0 0 0 0 0 0 0 0 0
0 0 0 0 0 -1 0 -2 0 0 0 0 0 0 0 0 0 0 0 0 0 0 0 0 0 0 0 0 0 0 0 0 0 0 0 0 0 0 0 0 0 0 0 0
0 -2 0 0 -3 -2 -1 0 0 0 0 0 0 0 0 0 0 0 0 0 0 0 0 0 0 0 0 0 0 0 0 0 0 0 0 0 0 0 0 0 0 0 0 0
0 0 0 0 0 0 -1 0 -1 0 0 0 0 0 0 0 0 0 0 0 0 0 0 0 0 0 0 0 0 0 0 0 0 0 0 0 0 0 0 0 0 0 0 0
0 0 0 0 0 0 0 0 -1 0 0 0 0 0 0 0 0 0 0 0 0 0 0 0 0 0 0 0 0 0 0 0 0 0 0 0 0 0 0 0 0 0 0 0
0 0 0 0 0 0 0 0 0 0 0 0 0 0 0 0 0 0 0 0 0 0 0 0 0 0 0 0 0 0 0 0 0 0 0 0 0 0 0 0 0 0 0 0
0 0 0 0 0 0 0 0 0 0 0 0 0 0 0 0 -1 0 0 0 0 0 0 0 0 0 0 0 0 0 0 0 0 0 0 0 0 0 0 0 0 0 0 0
0 0 0 0 0 0 0 0 0 0 0 0 0 0 0 0 0 0 0 0 0 0 0 0 0 0 0 0 0 0 0 0 0 0 0 0 0 0 0 0 0 0 0 0
0 0 0 0 0 0 0 0 0 0 0 0 0 0 0 0 0 0 0 0 0 0 0 0 0 0 0 0 0 0 0 0 0 0 0 0 0 0 0 0 0 0 0 0
0 0 0 0 0 0 0 0 -1 0 -1 -1 0 0 0 0 0 0 0 0 0 0 0 0 0 0 0 0 0 0 0 0 0 0 0 0 0 0 0 0 0 0 0 0
0 0 0 0 0 0 0 0 0 0 0 0 0 0 0 0 0 0 0 -1 0 0 0 0 0 0 0 0 0 0 0 0 0 0 0 0 0 0 0 0 0 0 0 0
0 0 0 0 0 0 0 0 0 0 0 0 0 0 0 0 0 0 0 0 0 0 0 0 0 0 0 0 0 0 0 0 0 0 0 0 0 0 0 0 0 0 0 0
0 0 0 0 0 0 0 0 0 0 0 0 0 0 0 0 0 0 0 0 0 0 0 0 0 0 0 0 0 0 0 0 0 0 0 0 0 0 0 0 0 0 0 0
0 0 0 0 0 0 0 0 0 0 0 0 0 0 0 0 0 0 0 0 0 -1 0 0 0 0 0 0 0 0 0 0 0 0 0 0 0 0 0 0 0 0 0 0
0 0 0 0 0 0 0 0 0 0 0 0 0 0 0 0 0 0 0 0 0 -2 0 0 0 0 0 0 0 0 0 0 0 0 0 0 0 0 0 0 0 0 0 0
0 0 0 0 0 0 0 0 0 0 0 0 0 0 0 0 0 0 0 0 0 0 0 0 0 -1 0 0 0 0 0 0 0 0 0 0 0 0 0 0 0 0 0 0
0 0 0 0 0 0 0 0 0 0 0 0 0 0 0 0 -2 0 0 0 0 0 0 0 -1 0 0 0 0 0 0 0 0 0 0 0 0 0 0 0 0 0 0 0
0 0 0 0 0 0 0 0 0 0 0 0 0 0 0 0 0 0 0 0 0 -2 -1 0 -1 0 0 0 0 0 0 0 0 0 0 0 0 0 0 0 0 0 0 0
0 0 0 0 0 0 0 0 0 0 0 0 0 0 0 0 -1 0 0 0 0 0 0 0 0 0 0 0 0 0 0 0 0 0 0 0 0 0 0 0 0 0 0 0
0 0 0 0 0 0 0 0 0 0 0 0 0 0 0 0 0 0 0 0 0 0 0 0 0 0 0 0 0 0 0 0 0 0 0 0 0 0 0 0 0 0 0 0
0 0 0 0 0 0 0 0 0 0 0 0 0 0 0 0 0 0 0 0 0 0 0 0 0 0 0 0 0 0 0 0 0 0 0 0 0 0 0 0 0 0 0 0
Wind_Speed
1 5 4 6 9 9 5 5 5 12 18 18 20 18 14 12 12 15 14 14 16 14 12 7 7 5 5 4 3 6 7 8 8 10 12 11 11 10 10 10 12 12 11 10
4 7 5 10 9 10 12 13 13 18 27 11 12 15 14 12 11 9 10 14 14 13 12 12 8 6 5 4 6 3 6 6 6 6 8 10 10 10 9 10 10 11 13 12
5 2 3 3 14 9 10 8 6 9 15 13 14 15 15 20 19 17 12 14 14 11 10 11 6 7 5 6 5 1 2 5 5 6 6 5 7 8 9 10 9 11 11 11
4 3 4 10 17 10 19 17 5 12 16 10 15 20 20 15 19 16 9 13 16 12 8 6 5 6 4 5 5 5 7 7 2 5 4 4 5 7 7 7 10 9 10 10
1 1 8 9 16 12 11 16 9 16 22 18 18 22 24 13 5 10 14 13 18 9 5 5 6 5 4 6 5 6 7 5 6 5 5 4 5 5 4 5 6 8 8 10
4 1 2 7 19 17 11 10 18 26 26 24 20 15 21 14 13 16 20 16 18 6 2 5 5 4 3 5 5 6 5 5 4 6 6 6 5 4 1 2 2 2 3 3
6 3 4 19 22 18 2 11 31 29 29 29 25 21 30 19 25 18 18 25 8 5 5 5 3 3 5 5 6 4 5 7 9 6 7 6 6 5 4 5 7 6 6 5
6 5 6 24 14 12 12 22 25 27 27 33 31 31 31 21 21 18 17 16 3 5 10 8 5 4 6 7 5 7 8 9 9 8 7 6 9 7 8 7 7 6 5 4
5 3 9 16 11 14 16 20 21 24 30 29 24 22 21 16 15 12 14 6 6 6 11 11 8 5 9 6 8 9 10 10 10 10 10 9 9 8 7 8 7 6 4 4
5 2 15 16 15 17 19 18 20 23 23 25 10 6 4 7 7 7 5 7 10 11 10 15 7 9 8 10 10 10 11 11 10 11 11 11 9 8 8 7 6 6 6 5
4 5 15 11 19 20 22 21 21 23 22 23 23 21 12 9 9 8 5 6 11 13 12 13 10 11 10 11 11 11 10 9 11 10 10 11 11 9 9 10 8 6 5 5
4 12 8 14 20 22 21 22 21 21 24 25 24 22 22 20 16 14 11 9 13 13 15 12 12 13 13 11 11 9 10 8 8 7 6 7 7 8 20 18 19 19 18 11
6 15 11 12 14 21 19 21 21 21 22 22 23 21 23 17 19 20 14 15 15 13 13 13 15 15 14 13 12 11 10 8 7 8 6 6 6 5 6 9 18 20 19 19
10 13 6 13 16 18 18 19 19 18 20 21 21 21 19 19 20 18 16 15 14 14 17 16 17 17 14 13 13 12 10 17 7 6 6 6 6 6 6 6 7 7 15 15
13 7 7 9 14 16 16 18 19 19 19 21 20 19 18 18 18 17 16 15 16 16 18 17 17 15 13 12 12 12 10 8 7 7 7 8 6 6 6 6 6 5 5 9
11 7 11 11 13 15 17 18 17 17 16 16 17 18 16 14 13 13 14 15 15 15 15 14 15 14 12 13 12 10 10 18 13 7 6 6 6 5 5 5 5 5 5 5
16 19 17 15 14 14 14 13 14 14 14 14 15 14 14 12 12 13 12 12 13 14 14 14 12 11 13 12 11 8 7 8 13 7 6 6 5 5 4 5 5 5 5 8
7 9 9 10 11 12 13 13 13 13 14 14 12 12 12 13 13 12 11 10 9 10 11 12 13 12 12 12 10 7 6 6 6 5 4 5 5 4 4 5 5 4 3 6
7 9 10 11 9 9 10 10 11 12 12 12 11 11 10 10 9 8 7 8 9 11 11 11 18 13 11 15 11 6 6 6 6 5 5 7 5 5 4 4 4 4 4 4
9 9 9 11 10 10 9 9 8 8 8 8 8 8 8 8 8 7 8 9 10 7 9 11 10 8 7 12 13 6 6 6 5 5 5 5 4 4 4 7 5 3 3 4
9 10 11 9 9 8 8 7 5 8 9 8 8 7 7 7 8 7 8 7 11 10 12 14 10 6 6 8 8 5 5 4 4 4 4 4 4 4 4 4 4 3 2 3
6 8 9 8 8 8 8 7 6 7 6 6 7 6 6 8 6 5 5 6 6 15 7 6 6 9 9 11 4 5 4 4 3 3 3 3 3 3 3 4 4 4 4 3
7 7 7 8 7 7 7 6 6 7 7 7 7 6 6 5 5 4 6 8 6 10 5 5 12 13 14 5 4 4 4 4 4 4 4 3 3 3 2 3 3 4 4 4
6 7 8 9 6 6 6 5 5 6 5 6 5 6 5 5 4 3 4 10 13 11 6 9 10 12 12 4 4 3 4 4 4 3 3 8 3 3 3 3 4 4 4 6
7 6 7 7 6 6 5 5 5 5 6 5 5 5 5 4 3 4 3 5 11 10 4 11 12 12 5 4 4 4 5 5 5 4 4 4 3 2 3 4 4 5 5 3
6 6 6 8 6 5 4 4 4 4 4 4 4 5 5 3 3 3 4 7 4 9 4 4 3 4 2 4 2 3 4 5 5 5 7 5 4 4 5 5 4 5 5 5
6 10 5 5 3 4 4 6 5 4 4 4 6 7 2 4 4 5 7 3 4 4 4 4 1 4 4 2 3 3 4 4 7 5 3 4 4 5 5 5 5 5 6 6
Wind_Direction
209 249 238 284 297 292 272 237 251 297 287 292 306 314 314 310 315 323 324 327 332 341 341 334 349 3 8 344 274 201 192 182 200 182 176 178 190 189 178 177 179 176 189 189
284 260 255 285 322 309 265 258 254 267 279 263 289 314 309 315 309 304 314 317 315 320 337 333 328 333 341 347 318 235 191 204 176 181 164 166 176 181 176 177 180 185 201 196
270 189 273 13 354 332 337 324 340 274 286 6 330 327 340 325 313 311 311 300 297 304 317 316 325 316 340 327 330 10 182 181 162 158 160 171 162 165 182 181 178 190 200 204
221 174 229 124 29 346 327 287 330 292 304 15 338 319 312 293 271 274 304 301 296 294 311 318 334 326 354 4 37 41 49 28 75 142 148 160 173 187 183 174 183 187 194 198
64 123 126 45 5 334 332 304 46 344 323 323 316 312 295 284 315 313 321 308 286 275 270 334 330 350 34 45 38 46 61 28 13 71 96 154 177 195 196 171 182 193 191 194
5 30 64 12 342 323 294 264 351 332 318 315 321 301 279 278 292 307 306 301 281 190 104 50 348 2 74 68 60 56 54 63 41 52 72 68 65 79 39 136 157 135 113 161
1 339 123 15 349 327 30 322 321 314 306 299 289 257 278 281 287 288 291 298 237 138 114 96 30 13 58 59 50 32 60 67 61 57 72 72 73 58 55 64 79 73 70 50
351 351 350 355 343 1 304 303 305 301 295 289 274 271 258 258 259 274 283 294 201 115 96 60 66 94 64 56 38 52 54 64 59 60 58 62 75 65 63 64 67 64 74 60
10 351 326 330 319 313 311 308 309 309 304 293 277 258 240 225 235 254 278 221 127 110 102 75 54 73 75 39 58 69 66 56 59 61 60 52 62 63 63 59 69 69 66 51
342 330 336 317 331 332 329 322 323 325 329 346 320 25 129 196 217 246 196 171 112 105 74 82 59 63 67 68 65 68 70 62 61 65 60 55 53 49 55 47 56 55 49 39
277 322 323 341 341 334 336 338 344 350 352 6 29 36 48 58 64 66 41 84 88 86 79 75 67 61 56 63 68 68 68 71 75 70 66 68 62 57 61 55 55 64 49 41
306 324 309 314 330 335 342 347 352 358 3 11 30 35 43 44 35 36 27 43 70 73 74 68 64 53 55 52 66 70 69 63 67 70 73 81 79 73 60 67 61 60 61 55
321 313 307 316 323 343 344 346 358 3 10 16 21 32 39 42 41 35 31 39 48 55 66 61 59 51 38 45 52 59 62 57 59 58 55 58 56 60 70 42 48 55 51 52
335 322 324 348 347 341 343 348 358 8 14 18 19 25 32 38 34 25 25 32 42 49 56 53 53 48 41 43 57 57 58 60 55 54 52 51 56 64 60 58 51 37 39 49
346 336 313 327 342 347 351 354 4 11 9 13 14 19 23 27 31 26 19 22 33 38 47 46 50 46 39 46 50 56 60 50 43 43 50 55 45 47 46 49 43 32 22 29
326 337 353 357 354 353 358 2 5 4 8 11 12 12 13 26 29 26 28 27 32 33 36 41 45 42 41 43 45 45 47 59 56 42 42 44 43 52 52 49 45 37 40 51
349 353 351 352 352 353 358 359 0 1 360 11 11 9 13 19 32 28 25 32 34 35 30 34 35 37 45 42 44 42 42 44 53 45 46 42 41 44 44 48 47 45 29 48
326 326 329 333 344 346 351 358 358 357 0 359 5 10 13 15 20 25 17 13 33 38 30 28 32 31 43 45 38 40 41 39 41 40 41 56 48 35 36 47 41 35 20 38
339 333 335 342 345 343 345 348 352 348 351 358 5 4 6 10 12 19 7 16 16 34 21 17 26 28 32 38 41 33 36 36 36 34 41 48 43 36 28 37 36 29 33 43
334 339 334 339 337 342 336 340 333 339 342 352 353 1 4 3 2 6 6 21 14 19 16 14 9 11 40 31 39 27 26 26 27 21 26 27 35 27 27 31 30 29 32 34
325 329 327 329 331 323 328 328 326 338 335 343 348 354 344 345 350 357 12 10 1 11 17 5 358 354 43 45 35 24 18 14 20 18 16 15 8 1 7 5 4 0 2 11
314 315 314 318 322 320 320 316 322 329 332 342 340 345 342 347 342 355 358 1 347 359 13 352 329 35 43 37 22 15 11 8 2 357 357 358 355 10 356 353 352 346 355 321
301 303 303 312 305 297 301 308 319 324 329 331 332 340 340 329 327 5 356 343 345 334 21 335 342 16 38 28 13 5 359 353 346 341 337 325 16 339 317 320 320 334 317 302
292 298 305 305 302 306 303 304 304 312 301 306 312 323 324 329 323 346 324 342 335 350 360 332 335 359 26 4 355 354 350 341 331 313 332 343 313 314 320 312 311 313 306 308
284 286 285 291 294 293 289 296 307 306 305 302 308 312 307 307 309 314 332 323 342 343 358 335 345 5 2 353 339 353 341 334 313 342 328 312 321 312 306 309 299 296 295 309
288 289 283 277 271 280 288 289 292 286 296 312 303 305 298 291 297 333 316 332 338 334 319 316 302 357 329 323 346 326 318 317 326 315 316 324 320 315 304 296 288 286 285 282
279 294 291 276 254 267 273 280 301 286 298 288 283 295 305 300 284 319 332 307 306 306 303 291 289 325 324 313 315 293 295 295 312 305 322 301 289 282 283 283 281 280 279 276